Wind_Speed
21 20 18 14 11 12 12 11 10 7 4 5 8 8 8 10 13 14 13 13 9 6 10 14 17 22 26 24 23 24 23 24 24 21 21 20 17 17 18 16 15 16 17 17 17 17 17 17 17 17 16 15 15 15 15 15 15 15 15 14 14 14 13 12 11 10 10 10 10 10 11 11 12 12 12 11 10 9 9 8 9 9 8 8 9 10
21 19 16 13 11 12 13 13 12 11 11 12 12 12 12 11 13 14 13 12 8 6 8 11 16 19 24 25 23 24 24 24 25 24 23 22 19 17 18 17 16 18 20 19 18 18 17 17 17 17 17 15 14 13 14 15 15 15 15 14 14 14 13 12 11 11 11 11 11 11 12 13 13 12 12 11 10 9 9 9 9 9 8 8 8 8
18 17 16 14 12 12 14 14 14 13 14 13 13 13 13 12 13 15 13 11 9 7 6 9 16 19 21 25 23 22 24 24 24 25 24 23 20 19 19 19 19 21 21 20 20 19 18 17 17 17 17 16 14 14 14 15 15 16 16 15 15 14 14 13 13 13 13 13 13 13 14 14 13 12 11 10 9 9 8 8 8 8 8 8 8 8
12 12 16 16 14 13 14 14 15 15 15 15 15 14 13 13 13 14 13 11 10 7 6 7 12 17 20 24 25 23 25 26 25 26 25 24 21 19 19 20 21 22 22 21 21 20 18 18 17 17 17 17 16 15 15 15 16 16 16 16 16 15 15 14 14 14 15 14 13 13 13 13 13 12 10 9 9 8 8 8 9 8 8 8 8 7
11 10 12 15 15 14 15 16 17 17 17 18 17 16 15 14 15 15 13 12 10 8 8 7 8 17 22 24 26 27 26 26 27 27 27 26 22 20 19 22 24 23 23 22 21 21 19 18 17 16 17 17 16 16 15 15 16 16 16 16 16 16 16 15 15 15 14 14 12 12 12 11 11 10 10 9 8 9 9 9 9 9 9 8 8 8
13 13 11 11 13 13 15 19 19 18 17 19 19 18 16 14 16 16 12 11 8 7 7 5 5 11 21 26 27 28 27 26 29 30 29 27 24 22 22 24 26 25 23 22 21 20 19 17 17 17 17 17 16 16 15 15 15 15 15 16 16 16 16 16 15 14 14 13 12 11 11 10 9 9 9 10 9 9 10 10 10 10 9 9 8 8
10 12 11 11 11 10 13 18 21 20 18 18 20 18 15 13 14 12 9 9 6 5 6 7 6 5 13 24 27 28 27 26 29 31 30 28 25 23 23 24 26 27 25 22 21 19 19 18 17 16 17 16 16 15 15 15 15 15 15 15 15 16 16 15 14 14 13 13 12 12 12 11 10 9 10 11 10 10 9 9 10 10 9 9 8 8
5 5 6 8 10 10 13 16 20 23 19 18 21 18 15 14 12 9 8 9 8 7 7 8 11 8 10 18 24 26 29 29 31 33 31 29 26 24 23 24 26 28 26 23 21 20 19 18 16 15 15 15 15 15 15 16 15 15 15 15 15 16 16 15 15 14 14 13 12 12 12 12 12 12 12 12 11 10 9 9 9 9 9 8 8 7
3 3 4 7 9 11 13 13 16 20 20 21 21 17 14 13 10 7 7 8 7 6 6 8 11 9 10 15 19 22 29 32 33 34 34 31 28 26 24 24 26 27 26 23 21 20 19 18 16 14 14 15 15 15 15 15 15 14 14 14 15 16 16 16 15 15 14 13 13 13 13 13 13 13 12 12 11 10 9 9 8 8 8 8 8 7
2 5 6 7 9 10 11 11 14 17 19 22 20 15 13 10 7 5 4 4 4 5 7 8 10 8 7 13 19 22 29 35 35 33 34 33 29 27 26 25 27 27 26 24 21 20 19 18 16 15 15 15 15 15 14 15 15 14 14 14 14 15 16 16 16 15 14 14 13 13 13 13 13 13 12 12 11 10 9 9 9 8 8 8 8 7
4 6 6 8 11 10 9 10 14 16 17 18 16 13 12 7 4 3 2 2 2 4 5 5 8 9 5 10 19 23 24 29 36 35 35 36 32 28 27 26 27 28 26 24 22 20 19 18 17 17 16 16 16 15 15 15 14 14 14 13 13 14 15 16 16 15 15 14 13 13 13 13 12 12 12 12 11 11 10 9 9 9 9 8 8 8
3 7 8 10 11 10 8 9 13 15 15 14 12 11 8 3 1 2 3 2 2 3 3 1 5 9 9 9 14 19 18 19 29 35 35 37 35 30 28 28 29 28 26 25 23 21 21 20 20 20 19 18 17 16 15 14 14 13 13 13 13 13 13 14 14 14 14 14 14 14 14 13 12 11 12 12 12 11 11 11 11 11 10 9 9 8
2 3 7 9 10 10 8 9 12 14 14 12 12 12 6 2 0 2 2 2 4 5 4 3 4 7 14 13 10 14 19 17 22 30 34 35 35 31 28 30 31 29 27 25 24 23 23 23 23 22 21 20 18 16 15 14 13 13 13 13 12 12 13 13 13 13 13 13 13 14 14 13 12 12 13 13 13 13 12 12 12 12 11 11 10 10
5 3 1 4 7 9 9 10 11 12 15 15 15 14 10 4 2 3 2 2 4 6 6 6 5 7 13 11 7 8 12 15 17 23 30 33 33 31 29 31 32 30 28 26 25 25 24 25 24 23 21 20 19 17 16 15 14 13 13 13 12 12 12 12 13 13 12 13 13 13 14 14 13 13 14 14 14 13 13 12 12 12 12 11 11 11
3 2 4 4 3 7 9 10 9 8 12 18 17 16 13 8 4 2 2 3 3 2 3 5 5 6 7 5 4 4 5 11 15 18 24 28 31 32 30 32 33 31 29 26 25 25 25 25 24 23 22 20 19 18 17 16 15 14 13 13 13 12 12 12 12 12 12 12 13 13 13 13 13 14 14 14 14 14 13 12 12 12 11 11 11 11
3 3 4 8 8 5 6 8 9 7 9 17 18 14 11 9 6 3 2 2 2 1 3 6 6 8 9 8 9 9 6 8 12 19 25 27 29 34 34 34 34 32 29 26 26 26 26 25 24 23 22 21 20 19 17 16 15 14 14 13 13 12 12 11 11 11 11 12 13 13 13 13 13 14 14 14 13 13 13 12 12 12 12 12 11 11
2 3 2 6 9 6 6 7 9 7 7 12 13 12 11 10 7 4 2 1 2 3 4 6 8 10 11 10 10 10 10 9 10 18 29 32 31 35 37 36 34 32 30 27 26 25 26 26 25 23 22 20 20 19 18 16 15 14 14 13 13 13 12 12 11 10 10 11 12 13 12 12 12 13 13 13 13 13 12 12 12 13 12 12 11 10
3 3 2 5 7 6 5 6 8 8 7 8 9 12 13 11 7 3 1 2 3 4 4 6 9 11 10 8 7 8 10 10 10 14 28 38 38 37 39 38 35 32 29 27 25 24 25 26 26 24 22 20 19 18 16 15 15 14 14 13 13 13 12 12 12 11 11 11 12 13 13 13 12 13 13 13 13 13 12 12 13 13 13 12 12 11
4 2 3 7 10 6 1 4 8 9 9 9 8 10 11 7 5 3 1 2 3 4 4 4 7 10 10 9 8 8 9 9 9 11 22 38 42 41 40 38 36 32 30 28 26 25 25 26 26 25 23 21 19 17 15 14 14 15 14 14 13 13 13 13 13 13 13 13 13 13 14 14 14 14 14 14 14 13 13 13 13 13 13 13 12 12
4 2 1 6 11 8 3 4 8 10 9 9 7 7 8 6 5 5 4 4 5 4 4 4 4 7 8 8 8 7 7 8 9 10 16 32 42 42 40 38 36 33 31 28 27 26 26 26 25 25 23 22 19 18 16 15 15 16 15 15 14 14 14 15 15 15 15 15 14 14 15 15 16 15 15 15 15 14 13 14 14 14 14 14 13 12
3 3 2 1 7 8 5 2 5 12 12 8 6 6 7 6 4 5 7 10 10 5 4 5 5 7 7 7 6 7 8 8 10 10 11 24 38 40 39 37 36 33 31 29 27 26 26 25 24 24 23 21 20 18 18 17 16 16 16 16 15 15 15 15 16 15 15 16 16 15 15 15 16 16 16 15 15 14 14 15 15 15 15 14 13 12
2 3 3 3 2 6 6 5 1 8 13 10 8 9 11 10 7 3 5 13 16 10 6 6 7 9 10 7 5 6 8 8 9 10 9 15 28 37 38 37 36 33 31 29 27 26 26 25 24 24 23 22 22 21 20 19 18 18 18 17 16 16 16 16 16 16 16 17 17 16 16 16 16 17 16 16 15 15 15 15 15 15 15 15 13 13
3 2 3 6 5 2 4 3 5 4 7 8 8 11 12 13 13 8 5 9 12 12 11 8 7 8 10 8 5 6 7 7 7 9 11 12 19 31 37 36 34 33 31 29 27 26 25 24 24 23 22 23 23 23 22 22 21 20 19 18 18 17 17 16 16 17 17 17 18 18 17 17 17 17 17 16 15 15 15 15 16 16 16 15 14 13
4 3 3 5 6 5 4 4 4 5 5 6 3 2 3 6 12 14 14 12 9 8 9 6 4 5 9 8 4 5 6 5 5 6 12 15 19 27 35 36 33 32 31 30 28 26 26 25 25 24 23 23 23 23 23 23 23 22 21 20 19 18 17 17 17 18 18 18 18 19 19 19 19 19 18 17 16 15 15 16 16 17 16 15 14 14
5 3 4 4 3 6 7 6 4 3 3 5 5 5 5 4 3 9 15 17 11 8 9 6 4 4 7 7 4 4 6 6 5 3 8 15 20 26 31 34 34 34 33 32 30 28 28 28 26 25 24 23 23 23 23 23 23 23 23 22 21 19 18 18 18 19 19 18 19 19 19 19 20 20 19 18 17 16 16 16 17 17 17 16 15 15
5 4 3 5 5 5 6 8 9 9 6 3 3 4 6 7 6 4 8 13 9 7 7 6 5 6 8 8 6 2 7 8 6 2 2 8 15 21 26 29 32 34 35 34 33 32 31 30 28 26 24 23 23 23 22 22 22 22 22 22 21 20 19 19 19 19 19 19 20 20 20 20 20 21 21 20 19 18 18 18 18 18 18 17 17 16
6 6 3 5 9 9 9 11 12 12 9 4 2 2 3 7 10 8 2 7 8 7 6 7 7 8 8 8 6 1 5 8 6 4 3 3 8 14 19 24 28 31 33 34 34 33 33 32 30 29 27 26 25 24 23 22 21 21 20 20 21 21 20 19 19 19 19 19 20 21 21 21 21 21 21 21 21 21 20 20 19 19 19 18 18 18
6 5 2 3 7 8 8 10 12 11 9 7 4 1 1 4 9 11 7 3 6 7 6 6 6 6 6 6 6 3 4 7 6 7 6 1 4 7 12 18 24 28 30 31 32 33 34 33 32 31 30 29 29 27 26 25 24 23 21 20 20 21 21 20 20 20 19 19 20 21 22 22 21 21 22 22 23 23 23 22 21 21 21 20 20 19
6 5 2 2 3 4 4 6 8 9 8 8 7 5 4 4 7 12 12 10 8 7 8 8 7 4 4 5 6 6 4 7 7 7 7 5 3 2 6 11 16 23 30 32 31 31 33 33 32 32 31 31 30 29 28 27 26 26 25 24 23 22 22 21 21 20 20 20 20 21 22 23 23 22 22 22 24 24 24 23 23 23 22 22 21 21
7 6 4 3 4 4 5 6 7 7 7 7 8 8 7 6 7 11 13 14 13 10 9 9 7 4 4 6 7 8 7 7 6 7 8 6 5 4 1 5 8 14 23 29 30 29 30 30 31 32 32 33 32 32 31 30 29 28 27 27 27 26 26 24 23 22 22 22 21 21 22 24 25 24 23 23 23 24 24 24 24 24 23 23 22 22
9 8 6 5 5 4 5 7 8 9 9 9 10 10 11 10 10 12 14 15 15 14 11 7 6 4 3 7 9 10 10 9 7 8 11 11 8 5 3 1 5 10 15 21 25 26 27 28 30 32 33 34 34 34 33 33 32 31 30 30 30 30 30 29 28 27 26 25 24 23 24 25 26 26 25 24 24 24 24 24 24 24 24 24 24 24
9 9 8 7 6 5 5 6 7 8 10 12 13 14 14 14 14 14 15 14 14 15 13 8 6 3 1 5 9 11 12 11 10 10 10 11 13 12 8 5 7 11 14 17 20 21 22 24 26 28 31 33 34 35 35 35 35 34 33 33 34 33 32 32 32 32 31 32 31 29 28 28 29 30 28 26 25 25 25 25 25 25 25 25 25 24
7 8 9 9 6 6 6 5 5 6 7 9 11 12 15 15 15 16 17 16 14 14 13 9 5 3 2 1 5 9 11 11 10 10 9 8 8 11 12 11 11 14 16 17 19 21 21 21 21 23 24 27 30 32 34 35 35 35 35 35 36 35 34 34 35 35 36 36 35 33 31 30 31 32 31 30 29 28 27 27 26 25 25 25 25 24
6 5 7 8 5 5 6 6 6 5 5 6 7 8 11 14 14 14 16 17 15 13 13 8 4 2 2 3 2 5 8 8 7 7 8 9 10 12 15 16 16 17 19 19 20 21 22 22 22 22 22 23 26 28 30 32 33 34 35 35 36 35 35 36 37 37 38 38 38 36 34 33 33 32 31 32 32 29 28 28 26 26 25 25 24 24
7 6 7 8 7 6 6 6 5 4 5 6 7 6 6 9 11 12 14 15 13 11 10 6 3 3 1 2 3 4 5 7 7 7 8 10 12 13 15 17 19 21 21 21 20 20 21 22 22 23 23 23 24 26 28 30 31 33 34 35 36 36 36 37 38 38 38 38 40 41 37 35 35 33 30 31 33 31 29 28 27 27 26 25 25 24
9 8 9 9 8 8 6 5 5 5 6 8 9 8 7 7 9 10 11 10 9 8 7 5 4 5 4 3 3 4 6 8 8 8 8 8 8 10 13 15 18 20 21 20 19 17 16 17 18 20 23 24 24 25 26 28 29 30 32 33 35 36 37 39 40 40 39 39 40 40 39 38 36 33 30 31 33 33 29 26 25 25 25 24 23 23
10 9 10 10 9 8 7 7 9 10 10 9 8 8 7 7 9 10 10 10 10 8 6 5 5 6 6 5 5 6 8 9 8 8 7 7 9 9 9 10 13 15 16 16 15 13 11 11 12 14 18 20 22 23 24 25 26 27 29 31 32 34 34 35 37 38 38 39 38 35 36 37 34 30 28 29 30 30 27 25 25 25 23 22 22 22
10 10 10 10 9 9 9 8 8 8 7 6 7 9 7 6 8 10 12 13 12 10 6 4 5 6 7 6 6 9 9 8 7 5 4 2 6 7 6 7 9 11 12 11 11 10 9 9 9 9 11 14 15 16 17 18 20 22 24 24 26 28 28 28 29 29 28 30 33 33 34 34 30 27 26 27 27 27 26 26 26 25 23 22 22 22
12 12 12 12 11 11 10 8 6 6 6 7 10 11 9 6 6 8 10 12 13 12 8 5 5 6 8 8 8 9 10 11 12 11 10 7 2 4 2 5 6 7 9 10 10 10 10 10 9 9 10 12 11 9 9 10 11 13 13 13 14 16 18 18 20 21 19 20 23 27 29 29 28 28 28 26 25 26 26 25 25 24 23 21 20 20
14 14 14 15 15 14 13 11 11 11 11 11 12 12 10 7 6 6 6 6 10 14 12 8 7 8 10 11 9 10 12 12 13 13 12 9 2 6 6 3 4 5 8 9 9 11 13 14 14 14 14 13 12 11 10 9 9 9 8 6 6 7 9 11 13 16 18 18 19 20 21 22 25 29 32 30 24 22 21 20 21 22 21 19 19 19
13 14 16 17 17 16 15 14 14 13 12 12 12 11 10 8 7 7 6 5 6 10 12 12 11 10 12 12 11 11 14 14 13 14 14 13 10 5 8 8 6 7 8 8 9 11 13 15 16 17 18 16 14 14 12 9 10 11 8 7 7 7 6 7 10 13 14 16 19 20 17 18 22 27 31 33 29 22 18 17 19 21 22 21 21 22
11 12 14 16 17 17 16 13 12 13 13 12 12 12 11 10 9 9 10 9 8 8 10 12 13 13 13 13 12 13 14 14 15 16 16 16 16 13 10 11 8 8 8 8 9 10 11 11 12 13 16 17 16 15 13 10 9 11 9 8 10 10 7 8 10 13 14 15 19 21 18 16 19 21 21 25 26 23 20 20 21 22 21 21 22 24
9 9 9 11 12 12 13 11 8 9 11 10 11 12 12 11 12 12 12 12 12 11 10 11 13 14 15 14 14 15 15 15 15 16 16 16 15 14 12 10 10 10 9 9 9 8 8 9 10 9 10 10 10 10 11 9 8 9 9 8 10 10 9 10 11 11 14 14 15 17 14 11 14 15 14 15 19 20 19 19 19 20 20 21 23 24
9 9 9 10 9 9 11 11 9 10 11 10 10 11 11 11 12 13 13 14 14 13 12 11 12 14 16 17 17 17 16 15 15 14 14 14 12 11 11 10 10 11 11 10 9 8 8 9 10 8 7 6 5 6 8 8 7 8 9 9 10 9 8 7 5 4 7 10 10 11 10 9 10 13 13 14 16 18 19 18 19 20 20 20 20 19
8 8 9 9 10 10 11 12 12 12 12 11 11 12 12 12 12 12 14 15 16 16 13 11 11 14 16 17 18 18 17 17 17 16 14 12 11 11 11 11 11 11 10 10 9 7 7 8 8 7 6 6 6 6 7 8 8 9 9 9 11 10 8 8 6 5 8 10 11 12 12 12 13 15 15 15 16 17 18 17 17 16 15 14 14 15
9 9 8 8 9 11 12 13 14 13 13 13 12 13 13 13 13 13 14 15 17 18 16 13 13 16 17 18 18 19 19 19 19 18 15 13 12 13 13 12 11 11 10 10 9 8 8 8 8 7 6 6 6 6 6 6 7 8 9 9 10 10 9 9 10 10 11 11 11 12 13 13 13 13 12 12 13 12 13 13 12 12 12 12 12 13
10 10 10 10 10 10 10 11 11 11 11 11 12 13 15 15 15 14 14 15 17 20 20 17 15 15 17 18 18 20 21 21 20 18 16 15 15 15 13 11 11 11 11 11 11 11 11 10 10 10 9 8 8 8 7 7 7 7 8 8 8 8 8 8 8 8 9 9 9 10 10 10 9 9 8 8 8 8 9 9 9 9 9 9 9 9
10 10 9 9 10 10 11 11 12 11 10 9 10 12 14 16 16 15 15 16 18 21 23 21 18 17 18 18 17 19 21 21 19 19 18 17 17 16 15 13 13 12 12 12 12 12 13 12 12 11 11 10 10 10 10 9 9 9 9 9 8 7 7 6 6 5 5 5 5 6 6 6 6 6 6 6 7 7 7 7 7 7 8 8 8 8
9 9 8 7 8 9 10 10 10 11 10 9 10 12 14 16 17 16 16 17 18 21 24 23 21 21 21 19 18 19 21 21 20 20 20 20 18 17 16 15 15 15 14 13 13 13 13 12 11 11 11 10 10 10 9 9 9 9 9 9 8 8 7 6 5 5 5 4 4 4 5 5 6 7 7 8 8 8 8 8 8 9 9 10 10 11
8 8 7 6 6 7 7 7 7 7 7 7 9 11 14 16 17 16 17 17 16 18 21 23 23 23 21 22 23 23 23 24 24 23 23 22 20 19 18 17 17 16 15 14 14 13 13 12 11 10 9 9 9 9 8 7 7 6 6 6 7 7 7 6 6 6 6 6 6 6 7 7 8 8 8 9 9 10 10 10 11 11 11 11 11 12
7 5 4 4 4 5 6 6 6 5 4 6 8 10 12 14 15 16 16 16 15 14 16 22 25 25 24 26 27 28 27 26 25 24 23 22 21 20 18 17 15 14 14 14 13 13 12 12 11 10 8 8 8 7 7 6 5 5 5 4 4 4 5 5 5 6 6 7 7 7 8 8 9 9 9 10 10 11 11 12 12 12 13 13 13 13
Wind_Direction
201 201 204 209 208 209 214 219 223 216 215 289 311 305 302 311 317 321 324 326 321 274 237 227 226 225 222 222 225 225 220 211 206 202 200 194 188 195 198 200 200 194 190 187 180 170 164 165 166 165 163 160 160 160 159 158 159 162 164 165 164 164 163 156 152 152 155 156 155 152 151 151 149 150 152 149 145 139 136 138 141 144 147 150 152 150
206 206 210 214 214 212 216 227 236 238 249 273 290 296 299 305 317 324 327 325 309 270 251 239 234 229 220 219 222 222 219 214 208 205 207 200 190 192 198 200 199 195 193 188 183 175 171 172 172 170 168 167 165 162 161 162 163 163 164 166 166 164 161 154 150 150 153 156 157 156 154 155 156 156 156 153 149 145 142 144 145 147 152 154 154 152
211 214 214 215 219 217 222 234 242 246 251 264 276 285 293 302 315 323 326 325 308 276 261 254 243 231 220 220 223 222 218 215 212 210 211 207 194 189 196 199 198 197 194 188 183 177 176 179 178 175 172 171 169 166 166 167 166 166 166 166 163 161 159 154 151 152 156 158 158 157 155 156 157 157 156 153 151 150 147 148 148 150 153 154 153 153
215 223 221 221 225 223 228 240 248 254 254 259 270 280 287 296 308 312 312 321 318 285 266 276 251 226 217 221 223 223 217 212 212 212 212 210 198 188 194 198 198 199 195 187 181 178 178 182 183 180 176 175 173 170 171 170 168 167 167 165 161 161 159 156 156 158 159 159 156 156 156 156 155 154 155 155 155 155 155 155 155 154 155 155 155 155
219 225 225 227 232 232 233 240 248 256 258 259 264 275 284 293 300 299 301 314 317 288 273 286 251 219 215 220 223 225 222 213 210 211 211 210 200 188 192 198 199 200 196 188 181 178 178 182 186 185 182 179 175 173 173 172 170 169 167 165 163 163 162 161 161 163 161 157 154 154 155 154 154 154 155 160 162 164 165 164 161 159 159 160 159 157
231 234 233 227 230 235 236 240 246 255 262 263 261 269 283 291 294 292 298 312 310 288 275 262 243 222 213 215 221 228 229 220 210 209 211 210 202 192 190 196 199 198 195 188 181 177 175 180 187 189 186 182 176 174 174 174 174 173 170 168 166 164 165 166 165 164 162 158 155 152 151 149 150 156 162 168 173 174 171 167 165 164 163 163 162 160
243 244 242 234 233 237 238 239 241 246 256 261 259 265 279 289 296 297 298 307 297 281 285 250 238 250 218 212 219 229 234 228 214 208 209 211 205 198 193 194 197 196 194 188 182 177 175 179 185 189 189 184 179 177 177 178 179 177 174 172 170 167 167 169 167 166 164 161 159 157 155 154 156 165 171 175 180 179 173 169 169 169 168 167 166 165
229 237 236 231 236 238 242 240 237 240 245 251 257 263 271 283 297 304 296 296 287 277 289 254 230 252 250 220 215 228 236 230 217 210 209 211 208 203 197 196 198 195 192 188 184 181 178 180 183 187 191 188 183 181 180 181 182 182 180 178 175 171 171 172 170 170 168 165 166 167 164 163 168 175 178 179 182 179 174 173 172 172 172 171 171 172
184 219 211 211 231 239 245 246 238 239 240 243 252 259 265 276 291 303 295 287 293 283 269 244 224 235 263 234 213 225 237 231 221 214 210 211 210 206 201 199 199 195 190 188 187 184 182 181 181 185 193 193 188 185 183 183 185 185 184 183 180 176 176 176 174 173 172 171 173 174 171 171 176 180 180 180 180 176 175 176 175 176 177 177 178 178
236 242 224 217 238 246 243 235 227 232 236 240 246 250 259 278 291 294 286 275 301 289 267 254 230 221 262 247 216 216 232 231 226 221 214 212 212 208 204 201 198 195 189 187 187 186 185 182 180 183 193 198 192 186 187 187 187 188 186 185 183 180 179 180 179 178 177 177 179 179 178 178 179 180 178 177 174 171 174 178 179 182 183 183 186 186
262 237 231 229 236 244 238 220 212 217 227 235 238 239 247 266 282 264 262 288 303 278 281 278 235 222 250 257 228 222 236 236 230 228 219 213 212 209 205 201 197 194 188 185 185 185 183 181 181 185 192 199 197 189 189 189 189 188 186 185 185 184 184 183 182 183 183 184 183 183 183 183 182 178 175 174 171 171 173 177 182 186 186 189 192 192
247 228 233 235 233 236 236 217 204 204 214 225 227 228 231 235 288 275 268 271 260 263 293 280 221 221 228 254 251 240 243 241 233 233 226 215 211 210 205 199 195 190 184 182 183 183 182 182 184 186 190 197 201 194 190 190 190 189 187 186 188 190 189 186 185 187 189 188 185 184 185 185 183 178 175 175 175 177 178 180 184 185 186 188 192 195
120 201 229 233 234 232 229 214 201 198 203 211 213 210 201 148 206 258 253 245 247 257 266 226 194 230 242 256 277 253 236 234 236 235 230 221 213 210 205 198 192 186 181 180 181 182 184 185 186 187 189 195 200 199 194 193 192 192 191 190 191 194 194 191 189 190 191 189 185 184 185 184 182 180 178 178 179 182 184 186 187 188 187 187 189 193
103 90 159 233 236 229 225 218 206 203 204 204 205 203 190 170 209 227 211 257 267 260 257 240 222 254 262 263 274 255 229 228 234 231 228 224 217 213 206 198 193 185 180 180 180 182 185 186 187 188 190 194 197 199 198 197 195 194 194 194 194 197 199 197 195 193 193 192 189 187 188 188 186 184 184 184 184 187 190 191 193 194 192 191 192 196
93 62 33 2 287 229 225 222 221 235 222 205 202 205 200 196 216 236 210 225 260 274 244 234 229 244 257 267 271 263 212 214 221 218 220 221 218 216 209 199 194 188 182 180 181 183 184 185 187 189 191 194 196 198 200 200 198 195 193 195 197 200 201 201 201 200 199 200 198 195 195 195 194 192 191 190 189 192 195 197 200 201 200 199 201 204
69 76 40 4 342 275 241 228 227 247 225 204 200 203 207 210 228 265 260 223 238 261 221 220 237 258 264 280 283 272 255 236 226 212 210 214 215 213 209 203 196 190 185 182 182 183 183 184 187 190 192 194 196 199 200 201 202 199 194 193 198 202 203 202 204 204 206 208 208 205 204 203 201 200 200 198 196 197 200 202 205 207 207 207 207 209
46 77 57 356 345 314 278 247 230 225 209 205 203 204 210 214 225 263 304 270 244 249 241 231 250 275 281 287 280 263 256 258 251 223 209 210 214 213 210 206 200 194 188 185 184 184 183 184 185 188 190 192 196 199 201 202 205 204 200 196 198 203 206 205 205 206 209 213 214 212 211 209 206 206 207 207 206 206 206 207 209 211 212 212 212 215
0 33 37 356 351 325 286 246 228 224 212 206 206 213 220 221 228 266 307 265 255 261 258 240 255 276 278 281 285 269 259 258 268 244 213 207 211 213 211 208 204 198 192 188 186 184 184 185 185 186 187 190 194 197 201 204 207 210 208 203 201 204 207 209 210 210 211 216 218 217 215 213 212 212 213 215 215 215 214 214 214 214 214 215 216 218
337 14 45 18 3 349 324 186 204 214 216 213 212 220 227 229 241 269 303 283 275 282 276 247 267 284 274 274 292 288 273 267 273 260 221 208 209 211 209 207 205 202 197 193 190 186 186 187 187 186 186 187 190 193 196 201 207 212 213 210 207 207 209 212 213 213 213 215 218 218 217 215 215 215 217 219 220 220 220 221 221 220 220 220 219 221
325 307 62 34 14 5 47 145 187 191 203 223 220 219 229 234 241 241 244 270 276 279 289 283 289 295 281 283 301 302 289 269 261 267 234 212 210 211 208 206 205 203 201 198 193 189 188 189 190 190 188 188 189 191 193 197 205 210 212 213 212 211 212 214 215 215 215 216 217 218 220 219 218 218 219 220 222 223 223 224 225 226 226 226 225 225
327 305 262 45 25 22 39 29 209 191 189 201 199 209 227 219 201 211 231 254 268 272 285 291 292 298 298 301 310 313 312 283 252 260 249 218 212 210 208 207 206 206 206 204 199 195 193 193 193 193 192 190 189 192 194 197 203 208 210 212 213 214 216 218 219 218 218 218 218 218 221 223 223 222 221 221 223 225 225 225 226 227 229 229 230 229
315 313 285 243 45 49 52 27 344 196 196 199 208 229 239 227 208 194 239 255 259 252 250 276 289 296 299 302 315 324 322 305 259 241 243 225 213 209 209 209 208 210 211 209 206 203 200 198 196 194 195 195 194 196 197 199 202 206 211 212 214 217 219 221 222 221 220 220 220 220 221 224 226 225 225 224 224 226 227 227 226 227 229 230 231 230
311 303 284 239 214 114 77 69 71 119 182 195 219 237 243 239 228 213 219 249 253 244 243 262 278 290 295 289 309 341 325 306 272 231 222 220 212 207 208 210 211 213 214 212 212 211 209 206 202 198 199 200 200 200 200 202 203 206 210 213 217 219 220 222 224 223 223 223 222 221 221 224 227 227 227 227 227 229 230 229 228 227 227 229 230 231
312 272 244 234 215 181 159 154 115 96 126 133 129 193 224 244 236 229 231 241 255 250 243 254 262 291 307 292 288 354 336 306 291 234 212 209 209 207 207 211 215 217 217 216 216 217 217 216 210 205 203 204 205 204 203 204 205 206 208 212 218 221 221 223 223 224 225 225 225 225 223 224 227 229 229 229 229 231 232 232 230 228 227 227 227 230
322 277 226 231 214 174 167 171 173 164 134 111 86 69 56 31 275 247 238 236 249 256 242 249 268 300 324 308 288 359 0 332 318 267 213 207 207 205 206 212 216 217 218 219 219 220 221 221 218 215 211 209 210 211 209 208 208 209 210 212 216 221 224 226 224 223 223 224 227 228 227 227 228 229 230 229 229 229 231 233 233 230 228 227 226 227
331 327 269 236 233 211 202 201 195 192 189 153 89 62 43 32 19 325 240 226 235 252 241 240 266 302 323 312 293 357 34 12 351 333 257 221 212 208 207 210 214 215 217 219 221 223 223 223 224 223 221 219 218 218 217 215 214 215 215 215 217 219 224 229 230 227 224 224 226 228 229 230 230 230 230 229 228 227 228 230 231 231 230 229 228 227
316 321 308 245 248 259 247 220 202 197 197 185 124 71 33 27 18 4 288 222 235 258 262 257 267 292 304 294 278 273 69 47 37 46 17 256 223 220 218 217 217 216 214 216 220 223 224 224 225 226 227 227 226 225 225 223 222 223 223 222 222 222 224 229 235 235 233 230 229 229 230 231 232 232 230 228 227 226 226 227 228 230 231 231 232 231
299 303 318 231 245 256 238 207 197 197 203 209 215 254 324 8 9 3 360 316 268 259 264 278 284 298 297 274 259 232 116 90 83 77 59 353 232 231 231 227 223 220 216 214 216 220 223 224 225 226 229 229 229 230 230 231 231 232 232 231 230 229 229 230 236 240 242 241 237 236 235 233 232 232 231 229 227 226 226 227 227 229 231 231 232 233
276 274 257 201 220 234 219 206 197 191 198 216 227 245 275 312 346 348 350 352 329 279 262 276 284 287 282 261 243 224 161 119 121 119 99 69 13 291 240 230 224 222 219 215 215 219 222 224 226 227 230 231 231 232 233 235 236 236 237 237 235 235 233 232 235 240 245 247 246 244 242 239 236 234 232 231 229 228 228 228 229 230 231 232 233 235
246 249 239 212 207 219 235 247 244 230 229 234 233 236 250 272 309 325 333 344 340 313 287 282 284 277 255 244 234 225 195 151 154 173 157 124 53 37 309 251 229 218 214 212 214 220 222 225 227 229 231 233 234 236 237 238 239 239 240 241 240 239 236 233 232 234 239 244 248 248 246 243 240 237 235 234 232 231 230 230 231 231 232 234 234 235
240 246 236 222 218 220 232 252 259 259 263 263 257 252 251 255 275 299 315 328 334 329 315 292 286 292 248 231 228 224 208 183 185 207 195 185 179 152 117 259 217 203 205 207 212 220 225 229 231 232 234 236 237 239 240 240 241 242 242 243 244 243 240 237 233 230 232 235 237 238 239 240 240 238 236 235 234 234 233 233 233 234 234 234 235 236
241 244 228 215 221 234 242 256 264 268 274 272 267 264 259 253 258 274 292 309 324 330 324 301 279 290 256 234 235 227 217 204 200 213 211 196 191 182 161 154 186 196 206 212 214 219 225 230 234 235 235 235 237 239 240 242 242 243 243 243 244 244 243 242 238 232 229 230 229 229 228 231 234 235 233 233 233 235 235 234 233 234 234 234 236 237
236 241 222 209 219 248 246 250 267 275 276 273 268 263 256 251 251 258 271 286 306 322 323 311 277 253 109 145 240 238 233 220 203 210 226 218 201 190 176 171 181 190 198 209 216 219 219 223 231 236 235 233 234 235 238 241 241 242 241 241 242 243 243 243 242 237 232 230 230 231 228 226 228 229 229 230 229 229 232 234 234 235 236 237 239 241
223 224 216 209 225 259 244 239 263 271 262 271 284 275 253 243 242 245 255 269 287 307 317 313 274 245 76 91 196 229 240 235 212 211 232 228 212 201 191 187 190 193 195 202 214 221 222 223 226 232 234 232 232 233 234 236 237 238 239 239 241 242 242 243 245 243 239 235 232 233 232 231 231 230 228 231 233 230 229 231 234 236 237 239 241 244
231 227 219 214 226 255 254 244 256 256 245 269 300 309 275 251 245 242 247 258 271 292 309 310 255 231 228 127 158 184 210 219 211 213 228 225 209 201 200 197 195 198 202 205 211 219 225 227 227 229 232 233 234 235 235 235 236 237 238 240 243 245 245 246 247 248 247 244 238 233 231 233 234 231 227 232 240 240 232 228 230 233 236 240 242 243
238 234 226 220 229 248 247 231 244 271 284 292 301 302 287 266 255 248 242 240 246 265 289 293 243 230 224 182 178 192 194 196 200 207 222 238 232 214 211 212 205 201 203 206 210 217 225 231 234 234 236 237 238 239 239 239 240 241 243 245 247 249 250 251 252 252 251 250 245 236 231 234 237 235 230 231 238 243 240 236 237 238 239 244 247 246
235 232 227 224 232 244 246 249 268 286 295 301 309 309 288 261 250 248 242 231 226 234 254 263 241 234 239 236 213 193 186 190 199 205 211 239 260 245 225 221 214 204 200 202 206 212 221 229 234 236 238 238 239 241 241 241 241 241 243 245 246 247 249 250 253 253 251 249 248 242 235 234 236 234 231 230 233 237 237 239 242 244 243 245 247 247
228 231 233 233 236 242 250 262 276 285 292 305 324 329 313 271 248 247 250 245 230 215 216 235 235 225 226 224 193 171 165 163 157 144 138 195 261 258 222 202 202 196 190 189 192 197 204 212 217 222 227 230 231 233 234 233 233 234 236 239 240 242 243 244 248 250 245 240 240 240 237 233 228 225 230 235 238 237 234 233 237 241 243 245 246 247
235 243 244 242 242 242 241 245 254 262 276 299 314 320 318 298 265 251 255 255 237 218 208 209 215 212 210 209 196 179 166 150 135 115 96 90 35 324 259 192 186 181 174 172 175 179 184 188 190 193 200 203 200 197 199 203 209 213 217 223 228 232 233 234 239 241 235 230 231 232 232 229 223 223 231 237 241 241 235 229 231 237 240 242 246 250
237 240 236 234 242 249 244 241 250 260 272 286 296 304 306 298 274 250 252 257 233 223 222 219 212 209 207 210 212 203 186 167 150 135 122 121 101 340 324 248 185 167 165 166 169 176 179 178 175 176 181 183 178 172 170 174 182 188 187 183 192 211 215 213 221 230 229 226 225 223 224 228 229 232 237 240 243 247 242 233 232 239 242 244 247 252
232 232 231 232 243 251 247 244 252 261 269 275 280 287 289 281 259 238 237 247 235 228 229 227 220 214 211 212 214 209 198 185 171 159 154 164 180 233 280 261 206 165 163 168 169 175 179 179 179 177 175 178 181 179 174 171 172 171 168 165 168 174 184 194 208 220 220 216 215 216 224 236 239 240 240 240 242 250 256 253 248 248 249 249 249 249
232 232 235 237 243 248 246 245 253 260 263 267 270 274 273 258 242 240 242 246 257 259 247 238 230 221 214 210 207 207 203 194 184 176 173 178 181 189 221 239 212 173 171 176 176 177 181 185 190 185 177 177 182 177 168 162 159 156 156 170 176 169 171 190 199 199 198 205 211 212 215 223 227 233 235 234 236 244 251 252 251 250 250 252 253 254
236 230 237 241 242 242 236 232 243 260 265 269 270 269 266 253 248 254 252 245 252 267 266 253 241 227 215 207 202 204 205 199 194 191 188 186 182 179 192 208 201 186 182 180 179 180 177 179 190 196 187 180 176 161 147 143 147 149 150 164 174 171 182 205 209 193 188 203 218 221 224 227 231 240 246 239 241 248 250 251 257 263 265 265 265 266
241 233 240 246 241 231 224 225 242 265 271 273 272 270 272 270 264 260 253 245 248 259 265 263 251 233 218 208 201 200 199 195 193 192 189 186 178 170 175 186 189 188 185 178 175 171 162 163 172 183 184 173 155 137 134 137 151 163 162 168 180 183 187 205 229 216 196 205 221 232 240 240 235 241 245 240 244 253 259 264 270 271 271 270 270 272
247 245 249 253 251 247 245 248 259 270 273 273 271 268 267 269 265 256 250 246 247 251 254 256 253 241 224 211 204 199 193 187 184 179 178 182 179 170 171 175 174 174 172 170 169 164 156 154 155 155 155 150 140 137 141 145 156 169 174 178 188 195 193 190 200 217 216 213 216 222 228 229 230 236 242 244 249 256 261 265 266 264 264 267 271 275
248 253 260 266 264 260 259 261 264 268 272 271 267 262 260 260 259 256 251 245 244 248 248 239 235 235 228 217 206 197 191 186 183 180 179 183 182 174 170 169 164 158 154 153 153 148 141 140 138 132 126 129 132 135 140 147 150 158 168 177 185 195 202 201 202 210 218 221 224 227 229 232 236 241 245 248 251 253 255 259 260 261 265 268 270 272
249 253 259 267 272 268 266 269 269 268 269 267 263 259 255 252 251 253 253 249 245 247 245 235 225 223 224 217 203 195 191 188 187 185 181 179 177 171 167 163 159 153 147 145 145 141 137 135 134 131 129 132 134 130 128 131 131 133 142 154 164 176 190 200 206 211 218 223 228 231 234 237 241 245 248 250 250 252 254 257 260 261 263 263 263 266
254 257 257 264 273 274 273 276 276 273 268 262 262 259 251 245 245 247 252 253 249 245 245 240 225 210 205 200 194 193 190 184 184 183 178 174 174 170 164 158 154 151 150 150 149 145 142 139 136 133 134 134 132 129 127 127 128 128 131 135 141 151 164 177 188 196 204 210 213 217 223 230 234 240 245 248 250 250 250 250 251 255 259 261 265 269
252 251 252 267 279 282 284 281 276 272 267 261 265 264 254 245 242 242 246 249 247 248 250 241 220 199 187 178 179 186 180 169 168 172 169 167 168 166 162 158 154 152 152 153 152 147 142 140 137 134 134 134 132 132 132 131 132 133 134 138 142 147 153 160 167 174 182 190 195 201 210 219 227 233 238 244 249 253 256 258 259 261 263 265 268 270
248 247 254 272 281 286 291 279 260 256 264 274 282 274 257 245 239 238 241 242 245 254 250 227 199 183 175 165 159 160 157 151 152 156 157 157 157 156 156 154 152 151 150 148 147 144 140 140 140 138 138 138 135 135 138 141 144 145 147 152 157 159 165 173 179 187 195 204 213 221 227 231 235 238 241 246 252 257 261 265 267 269 269 270 271 271
244 239 239 249 258 275 284 269 241 232 264 303 303 275 252 243 237 235 235 235 241 252 237 207 180 162 159 156 146 141 140 141 144 147 147 147 148 148 149 148 147 147 145 142 142 142 142 142 144 146 148 149 146 147 151 154 161 168 177 188 195 199 201 205 208 214 222 230 238 245 251 255 258 260 261 264 267 270 273 275 276 278 278 278 278 279
Height
3165 3166 3168 3169 3170 3172 3173 3174 3174 3174 3174 3174 3175 3175 3175 3175 3175 3174 3174 3173 3173 3173 3173 3174 3174 3175 3177 3178 3180 3182 3184 3186 3188 3190 3191 3193 3194 3196 3197 3198 3200 3201 3202 3203 3204 3204 3205 3206 3207 3209 3210 3212 3213 3214 3216 3217 3218 3219 3221 3223 3224 3225 3226 3227 3228 3229 3230 3231 3232 3233 3234 3234 3235 3236 3237 3238 3238 3239 3240 3240 3241 3241 3242 3242 3242 3243
3165 3166 3168 3169 3170 3172 3173 3173 3174 3174 3174 3174 3174 3174 3174 3175 3175 3174 3173 3173 3173 3173 3173 3173 3174 3174 3176 3177 3179 3180 3182 3185 3187 3188 3190 3192 3193 3195 3196 3198 3199 3200 3201 3203 3204 3204 3205 3206 3207 3209 3210 3212 3213 3214 3216 3217 3218 3220 3221 3222 3224 3225 3227 3228 3229 3230 3231 3232 3232 3233 3234 3235 3236 3237 3238 3238 3239 3240 3240 3241 3242 3242 3243 3243 3243 3244
3165 3166 3167 3169 3170 3171 3172 3173 3173 3174 3174 3174 3174 3174 3174 3174 3174 3173 3173 3173 3173 3172 3172 3173 3173 3174 3175 3176 3177 3179 3181 3184 3186 3187 3189 3191 3192 3194 3195 3197 3198 3199 3200 3202 3203 3204 3205 3206 3207 3209 3210 3212 3213 3214 3216 3217 3218 3219 3221 3222 3224 3225 3227 3228 3229 3230 3231 3232 3233 3234 3234 3235 3236 3237 3238 3239 3240 3241 3241 3242 3242 3243 3243 3244 3244 3245
3165 3166 3167 3168 3169 3171 3172 3172 3173 3173 3173 3173 3173 3174 3174 3174 3174 3173 3173 3172 3172 3172 3172 3172 3172 3173 3175 3175 3176 3177 3179 3182 3184 3186 3187 3189 3191 3193 3195 3196 3197 3199 3200 3201 3202 3203 3205 3206 3207 3209 3210 3211 3213 3214 3215 3217 3218 3219 3221 3222 3224 3225 3226 3228 3229 3230 3231 3232 3233 3234 3235 3236 3237 3238 3239 3240 3241 3242 3242 3243 3243 3243 3244 3245 3245 3245
3164 3165 3166 3168 3169 3170 3171 3171 3172 3172 3173 3173 3172 3173 3173 3173 3173 3173 3172 3172 3172 3172 3171 3171 3171 3172 3173 3174 3175 3176 3178 3180 3182 3184 3185 3187 3190 3192 3194 3196 3197 3198 3200 3201 3202 3203 3204 3206 3208 3209 3210 3211 3212 3214 3216 3217 3218 3219 3221 3222 3223 3225 3226 3227 3228 3230 3231 3232 3233 3234 3236 3237 3238 3239 3240 3241 3242 3242 3243 3243 3243 3244 3244 3245 3246 3246
3164 3164 3166 3167 3168 3169 3170 3170 3171 3172 3172 3172 3172 3172 3173 3173 3172 3172 3172 3171 3171 3171 3171 3172 3171 3170 3171 3173 3174 3175 3176 3178 3180 3182 3183 3185 3187 3189 3191 3194 3196 3197 3199 3200 3202 3203 3204 3206 3208 3209 3210 3211 3212 3214 3216 3217 3218 3219 3220 3222 3223 3224 3226 3227 3228 3229 3231 3232 3233 3235 3236 3237 3238 3239 3240 3241 3242 3242 3243 3244 3244 3244 3245 3245 3246 3246
3163 3164 3164 3166 3167 3168 3168 3168 3169 3170 3171 3171 3171 3171 3172 3172 3172 3171 3171 3171 3171 3171 3170 3171 3171 3170 3170 3172 3173 3174 3176 3177 3179 3180 3182 3183 3185 3187 3189 3192 3194 3196 3197 3199 3200 3202 3204 3205 3207 3209 3210 3211 3212 3213 3215 3216 3218 3219 3220 3221 3223 3224 3225 3227 3228 3229 3231 3232 3233 3235 3236 3237 3238 3239 3240 3240 3241 3242 3243 3244 3244 3245 3245 3246 3246 3247
3162 3163 3164 3165 3165 3166 3166 3166 3167 3169 3170 3170 3169 3170 3171 3171 3171 3171 3171 3171 3170 3170 3170 3170 3171 3171 3170 3171 3172 3173 3174 3175 3176 3178 3179 3181 3184 3186 3188 3191 3193 3194 3196 3198 3199 3201 3203 3204 3206 3209 3210 3211 3212 3213 3214 3216 3217 3218 3219 3221 3222 3224 3225 3226 3228 3229 3230 3232 3233 3234 3235 3236 3237 3238 3239 3240 3241 3242 3243 3244 3244 3245 3245 3246 3246 3247
3161 3162 3163 3163 3164 3164 3164 3165 3166 3167 3168 3168 3168 3170 3170 3171 3170 3170 3171 3170 3170 3170 3169 3168 3170 3171 3169 3168 3170 3172 3171 3171 3173 3175 3177 3179 3182 3184 3186 3189 3191 3193 3195 3196 3198 3200 3202 3204 3206 3208 3210 3211 3211 3212 3214 3215 3216 3218 3219 3220 3222 3223 3224 3226 3227 3228 3230 3231 3232 3234 3235 3236 3237 3238 3239 3240 3241 3242 3243 3243 3244 3245 3245 3246 3246 3247
3160 3161 3161 3162 3162 3162 3163 3163 3164 3165 3166 3166 3167 3169 3170 3170 3170 3170 3170 3170 3170 3169 3168 3167 3168 3169 3167 3166 3167 3169 3167 3167 3169 3173 3176 3178 3180 3182 3184 3187 3190 3192 3193 3195 3197 3200 3201 3203 3205 3207 3209 3210 3211 3212 3213 3214 3216 3217 3218 3220 3221 3222 3224 3225 3226 3228 3229 3230 3232 3233 3234 3235 3236 3237 3239 3240 3241 3242 3242 3243 3244 3245 3245 3246 3246 3247
3159 3159 3160 3160 3160 3161 3161 3162 3162 3164 3164 3165 3166 3168 3169 3169 3169 3170 3170 3170 3170 3168 3166 3166 3167 3168 3166 3163 3163 3164 3163 3164 3167 3170 3173 3176 3178 3180 3183 3185 3188 3190 3191 3193 3196 3198 3201 3203 3204 3206 3207 3209 3210 3211 3212 3214 3215 3216 3217 3219 3220 3222 3223 3225 3226 3227 3228 3230 3231 3233 3234 3235 3236 3237 3238 3239 3240 3241 3242 3243 3243 3244 3245 3246 3246 3247
3157 3158 3158 3158 3159 3159 3160 3160 3161 3162 3163 3164 3165 3166 3168 3169 3169 3170 3169 3169 3170 3167 3165 3165 3166 3167 3166 3162 3160 3161 3161 3164 3166 3167 3170 3173 3176 3178 3181 3183 3186 3188 3190 3192 3194 3197 3199 3201 3202 3204 3206 3208 3209 3211 3212 3213 3214 3216 3217 3218 3220 3221 3223 3224 3225 3227 3228 3229 3231 3232 3233 3234 3235 3236 3237 3238 3239 3240 3241 3242 3242 3243 3244 3245 3246 3246
3156 3156 3157 3157 3157 3158 3159 3159 3160 3161 3162 3163 3164 3165 3167 3168 3170 3170 3169 3169 3168 3166 3165 3165 3165 3166 3163 3160 3160 3160 3160 3162 3163 3164 3167 3171 3174 3176 3179 3182 3184 3186 3188 3190 3192 3195 3197 3199 3201 3203 3204 3206 3208 3210 3211 3213 3214 3215 3217 3218 3219 3221 3222 3224 3225 3226 3228 3229 3230 3231 3232 3233 3235 3236 3237 3238 3239 3239 3240 3241 3242 3242 3243 3244 3244 3245
3156 3156 3156 3156 3156 3157 3157 3158 3159 3159 3160 3161 3162 3163 3165 3166 3169 3170 3169 3169 3167 3164 3164 3165 3165 3164 3159 3158 3159 3158 3158 3160 3162 3163 3165 3169 3172 3175 3177 3180 3182 3184 3186 3188 3190 3193 3195 3198 3200 3202 3203 3205 3207 3209 3211 3212 3214 3215 3216 3218 3219 3221 3222 3223 3225 3226 3227 3229 3230 3231 3232 3233 3234 3235 3236 3237 3238 3239 3239 3240 3241 3242 3242 3243 3243 3244
3156 3156 3156 3156 3156 3156 3156 3157 3158 3158 3159 3159 3160 3161 3162 3163 3165 3166 3166 3167 3165 3164 3164 3165 3164 3160 3157 3157 3157 3157 3157 3158 3160 3162 3163 3166 3170 3173 3176 3178 3180 3182 3184 3186 3189 3191 3194 3196 3199 3201 3202 3204 3206 3208 3210 3211 3213 3214 3216 3217 3219 3220 3222 3223 3224 3226 3227 3228 3229 3230 3231 3232 3233 3234 3235 3236 3237 3238 3239 3239 3240 3241 3241 3242 3242 3243
3156 3156 3156 3155 3155 3155 3155 3156 3156 3157 3158 3158 3159 3161 3162 3162 3163 3164 3164 3164 3164 3163 3163 3162 3160 3157 3156 3156 3156 3156 3156 3156 3158 3159 3161 3163 3165 3169 3173 3175 3178 3180 3182 3184 3187 3189 3192 3195 3197 3199 3201 3203 3205 3207 3209 3211 3212 3214 3215 3217 3218 3220 3221 3223 3224 3225 3226 3227 3229 3230 3230 3231 3233 3234 3234 3235 3236 3237 3238 3239 3239 3240 3241 3241 3242 3242
3156 3156 3156 3155 3154 3154 3154 3155 3155 3157 3158 3158 3159 3161 3161 3161 3162 3163 3163 3162 3163 3162 3161 3159 3157 3155 3155 3154 3154 3154 3154 3155 3156 3156 3157 3159 3161 3164 3168 3172 3175 3178 3180 3183 3185 3188 3191 3193 3196 3198 3200 3202 3204 3206 3208 3210 3211 3213 3215 3216 3217 3219 3220 3222 3223 3224 3225 3227 3228 3229 3230 3231 3232 3233 3234 3235 3236 3236 3237 3238 3238 3239 3240 3240 3241 3242
3156 3156 3156 3155 3154 3154 3153 3154 3155 3156 3157 3158 3159 3160 3160 3161 3162 3162 3163 3163 3162 3161 3158 3156 3155 3154 3154 3153 3152 3152 3152 3153 3153 3153 3154 3156 3158 3160 3164 3169 3173 3176 3179 3182 3184 3187 3190 3192 3194 3196 3199 3201 3203 3205 3207 3209 3211 3212 3214 3215 3216 3218 3219 3221 3222 3223 3225 3226 3227 3228 3229 3230 3231 3232 3233 3234 3235 3236 3237 3238 3238 3239 3239 3240 3240 3241
3156 3156 3155 3155 3154 3153 3152 3153 3154 3155 3157 3157 3158 3159 3159 3160 3161 3162 3163 3165 3164 3162 3158 3154 3153 3153 3152 3151 3150 3150 3150 3150 3151 3150 3150 3152 3154 3157 3161 3166 3171 3174 3177 3180 3182 3186 3188 3191 3193 3195 3198 3200 3202 3204 3206 3208 3209 3211 3212 3214 3215 3216 3218 3219 3221 3222 3224 3225 3226 3227 3228 3229 3230 3231 3232 3233 3234 3235 3236 3237 3238 3238 3239 3239 3239 3240
3155 3155 3155 3155 3154 3153 3153 3153 3154 3155 3156 3157 3157 3158 3159 3159 3160 3161 3163 3165 3165 3163 3159 3155 3152 3151 3150 3149 3149 3149 3148 3148 3148 3148 3148 3149 3151 3154 3158 3163 3168 3171 3175 3178 3181 3184 3186 3189 3192 3194 3196 3199 3201 3203 3205 3207 3208 3210 3211 3212 3214 3215 3217 3218 3219 3221 3222 3224 3225 3226 3227 3228 3229 3230 3231 3232 3233 3234 3235 3236 3237 3238 3238 3238 3239 3239
3155 3155 3154 3154 3154 3154 3154 3154 3154 3154 3156 3157 3157 3158 3159 3159 3159 3159 3161 3163 3162 3162 3160 3157 3152 3150 3149 3149 3148 3147 3146 3146 3146 3147 3147 3148 3150 3153 3157 3162 3166 3169 3173 3176 3179 3182 3185 3188 3191 3193 3195 3198 3200 3202 3203 3205 3207 3208 3210 3211 3212 3214 3215 3216 3218 3219 3221 3222 3224 3225 3226 3227 3228 3229 3230 3231 3232 3233 3234 3235 3235 3236 3237 3237 3238 3238
3155 3154 3154 3154 3154 3154 3154 3154 3153 3154 3155 3156 3157 3157 3158 3158 3158 3158 3159 3160 3160 3159 3158 3156 3152 3149 3148 3148 3147 3146 3146 3145 3145 3146 3147 3147 3150 3153 3157 3161 3165 3168 3171 3175 3178 3181 3184 3186 3189 3192 3194 3196 3198 3200 3202 3203 3205 3207 3208 3210 3211 3212 3214 3215 3216 3218 3220 3221 3222 3224 3225 3226 3227 3228 3229 3230 3231 3232 3232 3233 3234 3235 3235 3236 3237 3237
3155 3154 3154 3153 3154 3154 3154 3154 3154 3154 3155 3155 3156 3157 3157 3157 3157 3157 3158 3159 3158 3156 3155 3154 3152 3148 3147 3147 3146 3146 3145 3145 3144 3145 3146 3147 3149 3152 3157 3160 3164 3167 3170 3173 3177 3179 3182 3185 3188 3190 3192 3194 3196 3198 3200 3201 3203 3205 3207 3208 3210 3211 3213 3214 3215 3217 3218 3219 3221 3222 3223 3224 3225 3227 3228 3229 3230 3231 3231 3232 3233 3233 3234 3235 3236 3236
3154 3154 3153 3153 3153 3153 3153 3154 3154 3155 3155 3156 3156 3156 3156 3156 3156 3156 3157 3158 3156 3154 3154 3154 3151 3148 3147 3147 3146 3146 3145 3145 3144 3144 3145 3146 3148 3151 3154 3158 3161 3165 3168 3171 3174 3178 3180 3183 3186 3188 3190 3192 3194 3197 3198 3200 3201 3203 3205 3206 3208 3209 3211 3212 3213 3215 3216 3218 3219 3220 3221 3223 3224 3225 3227 3228 3229 3230 3230 3231 3231 3232 3233 3234 3234 3235
3154 3154 3153 3153 3152 3152 3153 3153 3154 3155 3155 3155 3155 3155 3155 3155 3155 3154 3155 3156 3155 3153 3152 3152 3150 3148 3147 3147 3146 3146 3146 3146 3145 3144 3145 3146 3147 3150 3152 3155 3158 3161 3165 3168 3171 3175 3178 3180 3183 3185 3187 3190 3193 3195 3196 3198 3200 3201 3203 3205 3206 3208 3209 3210 3211 3213 3214 3215 3217 3218 3220 3221 3222 3223 3225 3226 3227 3228 3229 3230 3231 3231 3232 3233 3233 3234
3153 3154 3154 3153 3151 3151 3151 3151 3151 3153 3154 3154 3154 3154 3154 3154 3154 3153 3153 3153 3153 3151 3150 3150 3149 3148 3147 3147 3146 3146 3146 3146 3146 3146 3146 3147 3148 3150 3151 3153 3156 3159 3162 3165 3168 3171 3174 3177 3180 3183 3185 3188 3190 3193 3195 3197 3198 3200 3202 3203 3205 3207 3208 3209 3210 3211 3212 3213 3215 3216 3218 3219 3221 3222 3223 3225 3226 3226 3227 3228 3229 3230 3231 3231 3232 3232
3153 3153 3153 3153 3151 3150 3149 3149 3149 3150 3152 3152 3153 3153 3153 3153 3153 3152 3152 3152 3151 3149 3149 3148 3148 3147 3147 3146 3146 3146 3146 3147 3147 3146 3147 3147 3148 3150 3151 3152 3154 3156 3159 3162 3165 3168 3171 3174 3177 3180 3183 3185 3188 3190 3193 3195 3197 3198 3200 3202 3204 3205 3206 3207 3209 3210 3211 3212 3213 3215 3216 3217 3219 3220 3221 3222 3223 3224 3225 3226 3227 3228 3229 3230 3231 3231
3152 3152 3152 3152 3151 3150 3149 3148 3148 3149 3150 3151 3151 3152 3152 3152 3152 3152 3151 3150 3149 3148 3147 3147 3147 3147 3146 3146 3146 3146 3146 3147 3147 3147 3148 3148 3149 3149 3151 3151 3152 3154 3157 3160 3162 3165 3168 3171 3174 3177 3180 3182 3185 3187 3190 3192 3194 3196 3198 3200 3202 3203 3205 3206 3207 3208 3210 3211 3212 3214 3215 3216 3217 3218 3219 3220 3221 3222 3223 3223 3224 3225 3227 3228 3229 3229
3151 3151 3151 3151 3151 3150 3149 3148 3148 3148 3148 3149 3150 3150 3151 3151 3151 3151 3150 3149 3149 3147 3146 3146 3146 3146 3146 3146 3145 3145 3145 3147 3148 3148 3148 3149 3149 3150 3150 3150 3151 3153 3155 3158 3161 3164 3166 3169 3171 3174 3177 3179 3182 3184 3187 3189 3191 3193 3195 3198 3200 3201 3203 3205 3206 3207 3208 3210 3211 3213 3214 3215 3215 3216 3217 3218 3219 3220 3221 3222 3223 3224 3224 3225 3227 3228
3150 3150 3150 3150 3150 3150 3149 3149 3148 3148 3148 3148 3148 3149 3150 3150 3150 3150 3150 3149 3148 3146 3145 3145 3145 3146 3146 3146 3145 3145 3145 3146 3148 3149 3149 3149 3150 3150 3150 3150 3150 3151 3153 3157 3160 3163 3165 3168 3170 3172 3174 3176 3179 3181 3184 3186 3188 3190 3192 3194 3196 3198 3200 3202 3203 3205 3206 3208 3209 3211 3212 3213 3214 3214 3215 3216 3217 3218 3219 3220 3221 3222 3223 3224 3225 3225
3149 3149 3149 3149 3149 3149 3148 3148 3148 3148 3148 3148 3147 3147 3148 3149 3149 3149 3149 3148 3147 3146 3145 3145 3145 3145 3145 3145 3145 3144 3144 3145 3147 3148 3148 3148 3149 3150 3151 3151 3151 3152 3154 3157 3160 3162 3164 3166 3168 3169 3171 3173 3176 3178 3180 3182 3185 3187 3189 3191 3192 3194 3196 3198 3199 3201 3203 3204 3205 3207 3208 3209 3211 3212 3212 3213 3215 3216 3217 3218 3219 3220 3220 3221 3222 3223
3147 3148 3148 3148 3148 3147 3147 3148 3147 3147 3147 3147 3146 3146 3146 3147 3148 3148 3148 3148 3147 3146 3145 3144 3144 3145 3145 3145 3145 3145 3144 3144 3145 3146 3147 3148 3149 3150 3150 3152 3153 3154 3155 3157 3159 3161 3163 3164 3165 3166 3168 3170 3172 3174 3176 3178 3181 3183 3185 3187 3188 3190 3192 3193 3195 3197 3198 3199 3200 3201 3203 3204 3205 3207 3208 3209 3211 3212 3214 3214 3215 3216 3217 3219 3220 3221
3147 3147 3147 3147 3147 3146 3146 3147 3146 3147 3146 3145 3145 3145 3145 3145 3146 3146 3146 3147 3146 3145 3144 3144 3144 3144 3144 3145 3145 3145 3145 3144 3144 3146 3148 3149 3150 3150 3150 3151 3153 3154 3155 3157 3158 3160 3161 3162 3163 3164 3165 3167 3168 3170 3172 3174 3176 3179 3181 3182 3184 3186 3188 3188 3190 3191 3193 3194 3196 3197 3199 3200 3200 3201 3203 3205 3206 3207 3209 3211 3213 3214 3215 3217 3218 3219
3146 3146 3146 3146 3146 3146 3145 3146 3146 3146 3145 3144 3143 3143 3143 3143 3144 3144 3144 3145 3145 3145 3144 3143 3143 3143 3144 3144 3144 3144 3144 3144 3144 3146 3148 3149 3148 3148 3149 3150 3151 3152 3154 3155 3157 3158 3159 3160 3161 3162 3163 3164 3165 3167 3168 3170 3172 3174 3176 3178 3180 3181 3183 3184 3185 3187 3188 3190 3192 3194 3196 3198 3198 3199 3199 3200 3202 3204 3205 3207 3210 3211 3212 3214 3216 3217
3145 3146 3146 3146 3146 3145 3145 3145 3145 3144 3143 3143 3143 3143 3143 3143 3143 3142 3142 3143 3143 3144 3143 3142 3142 3143 3143 3144 3144 3144 3144 3145 3145 3146 3147 3148 3148 3148 3148 3148 3149 3151 3152 3154 3155 3156 3157 3158 3160 3161 3161 3162 3163 3165 3166 3167 3169 3171 3173 3174 3176 3177 3179 3180 3181 3183 3185 3187 3188 3189 3191 3193 3196 3198 3197 3197 3201 3204 3204 3204 3206 3208 3209 3211 3213 3214
3144 3145 3145 3145 3145 3145 3144 3145 3144 3142 3141 3142 3142 3142 3142 3142 3141 3141 3141 3141 3142 3142 3142 3142 3142 3142 3143 3143 3144 3144 3144 3145 3146 3147 3147 3148 3150 3151 3148 3147 3148 3149 3150 3152 3154 3155 3156 3158 3159 3160 3161 3162 3162 3163 3164 3166 3167 3169 3170 3171 3172 3173 3174 3175 3175 3177 3180 3181 3182 3184 3187 3189 3192 3195 3194 3193 3198 3202 3204 3204 3205 3206 3208 3209 3210 3210
3143 3143 3144 3144 3144 3144 3143 3143 3142 3141 3141 3141 3141 3141 3141 3140 3140 3140 3140 3139 3140 3141 3141 3141 3141 3142 3143 3143 3143 3143 3144 3145 3146 3147 3147 3148 3151 3153 3151 3149 3149 3149 3149 3151 3153 3154 3156 3157 3158 3159 3159 3160 3161 3162 3162 3164 3165 3166 3167 3168 3168 3168 3169 3169 3170 3171 3173 3174 3176 3179 3182 3185 3188 3190 3190 3191 3194 3199 3202 3202 3202 3203 3206 3207 3207 3207
3142 3142 3142 3143 3142 3142 3143 3142 3141 3141 3140 3140 3140 3140 3139 3139 3139 3139 3139 3138 3138 3139 3140 3140 3140 3141 3142 3142 3143 3143 3144 3144 3145 3147 3148 3148 3150 3153 3154 3152 3150 3149 3149 3151 3152 3154 3155 3155 3156 3157 3158 3158 3159 3160 3160 3161 3162 3164 3164 3164 3165 3165 3165 3166 3166 3167 3169 3170 3172 3175 3178 3182 3184 3186 3188 3190 3192 3195 3198 3198 3198 3200 3203 3203 3203 3203
3140 3140 3141 3141 3141 3141 3141 3141 3140 3140 3139 3138 3138 3138 3138 3138 3138 3138 3138 3137 3137 3138 3138 3138 3139 3140 3140 3142 3143 3143 3143 3144 3144 3145 3146 3147 3150 3154 3155 3153 3150 3149 3150 3151 3152 3153 3154 3154 3155 3156 3157 3158 3158 3159 3159 3160 3161 3162 3162 3163 3163 3163 3163 3164 3165 3166 3167 3168 3170 3172 3175 3178 3180 3183 3186 3189 3190 3192 3193 3194 3195 3198 3199 3200 3200 3201
3138 3139 3139 3139 3139 3139 3140 3139 3139 3138 3138 3137 3137 3137 3137 3137 3137 3137 3137 3136 3136 3137 3137 3137 3138 3138 3139 3140 3142 3142 3143 3144 3143 3143 3143 3145 3149 3153 3155 3153 3152 3151 3151 3151 3152 3153 3153 3153 3153 3154 3156 3157 3158 3159 3159 3160 3160 3161 3162 3162 3162 3162 3163 3164 3165 3166 3167 3168 3169 3171 3173 3175 3177 3180 3183 3185 3186 3188 3189 3190 3193 3195 3196 3197 3198 3199
3136 3137 3137 3137 3137 3138 3138 3138 3137 3136 3136 3136 3136 3136 3136 3136 3136 3137 3136 3135 3135 3135 3136 3136 3136 3137 3138 3139 3140 3141 3142 3143 3142 3142 3142 3142 3145 3151 3154 3154 3152 3151 3151 3151 3152 3152 3153 3153 3152 3153 3154 3155 3157 3158 3159 3159 3159 3161 3161 3162 3162 3162 3163 3164 3165 3165 3166 3167 3169 3171 3173 3175 3176 3178 3180 3181 3183 3185 3186 3188 3190 3193 3194 3195 3196 3197
3135 3135 3135 3135 3136 3136 3136 3136 3136 3135 3134 3135 3135 3135 3135 3135 3135 3135 3135 3134 3134 3134 3134 3134 3135 3135 3136 3137 3138 3139 3141 3142 3142 3142 3142 3142 3143 3147 3150 3151 3151 3151 3151 3151 3152 3152 3153 3154 3154 3154 3154 3154 3155 3156 3157 3158 3159 3160 3161 3161 3162 3162 3163 3164 3164 3164 3165 3166 3168 3170 3172 3173 3175 3177 3178 3181 3183 3185 3185 3186 3187 3189 3190 3192 3192 3193
3133 3133 3133 3133 3134 3134 3134 3135 3134 3133 3133 3133 3133 3133 3133 3133 3133 3133 3133 3133 3133 3133 3133 3133 3134 3134 3135 3135 3136 3138 3139 3140 3141 3141 3141 3142 3142 3144 3146 3148 3149 3150 3150 3151 3151 3152 3153 3153 3155 3156 3157 3157 3157 3156 3156 3157 3159 3160 3161 3161 3162 3162 3163 3164 3163 3163 3165 3166 3168 3170 3172 3173 3175 3177 3178 3179 3181 3182 3182 3183 3183 3184 3186 3187 3188 3188
3131 3131 3131 3131 3132 3132 3132 3132 3132 3131 3131 3132 3132 3131 3131 3131 3131 3132 3132 3132 3132 3132 3132 3132 3133 3133 3134 3134 3135 3136 3137 3138 3139 3140 3141 3141 3142 3143 3144 3146 3147 3149 3149 3150 3151 3152 3153 3153 3154 3155 3156 3158 3158 3158 3157 3158 3160 3160 3161 3162 3162 3163 3164 3165 3165 3165 3167 3168 3169 3171 3173 3174 3175 3176 3177 3177 3178 3179 3179 3179 3180 3181 3183 3184 3184 3185
3129 3129 3130 3130 3130 3130 3130 3130 3130 3130 3130 3130 3130 3129 3129 3129 3130 3130 3131 3131 3131 3131 3131 3131 3132 3132 3133 3133 3134 3135 3136 3136 3137 3139 3140 3141 3142 3142 3143 3144 3146 3147 3149 3150 3151 3152 3153 3154 3154 3155 3155 3156 3157 3158 3159 3159 3160 3160 3161 3161 3162 3163 3164 3165 3165 3166 3167 3168 3169 3170 3172 3173 3174 3175 3175 3176 3177 3177 3177 3178 3179 3179 3180 3181 3182 3182
3128 3128 3128 3128 3128 3128 3128 3128 3128 3128 3128 3128 3128 3127 3127 3127 3128 3128 3129 3129 3130 3130 3130 3130 3131 3132 3132 3133 3133 3133 3134 3135 3136 3137 3139 3140 3141 3142 3143 3144 3145 3146 3148 3149 3151 3152 3153 3154 3154 3154 3155 3156 3157 3158 3158 3159 3159 3160 3160 3161 3162 3162 3163 3164 3165 3166 3167 3168 3168 3169 3170 3171 3172 3173 3174 3174 3175 3176 3176 3177 3177 3178 3179 3179 3180 3180
3126 3127 3127 3127 3127 3127 3126 3126 3126 3126 3126 3126 3126 3125 3125 3125 3126 3126 3127 3128 3128 3128 3128 3128 3129 3130 3132 3132 3132 3132 3133 3133 3135 3136 3137 3139 3140 3141 3142 3143 3145 3146 3148 3149 3150 3152 3153 3154 3154 3155 3155 3156 3157 3158 3158 3159 3159 3160 3161 3161 3162 3163 3163 3164 3165 3166 3167 3167 3168 3169 3170 3171 3171 3172 3173 3174 3175 3175 3176 3176 3177 3177 3178 3179 3179 3179
3125 3125 3125 3125 3126 3125 3125 3125 3125 3125 3124 3124 3124 3124 3123 3124 3124 3124 3125 3126 3126 3127 3127 3128 3128 3130 3130 3131 3132 3132 3132 3133 3134 3135 3136 3137 3139 3140 3141 3143 3145 3146 3148 3149 3151 3152 3153 3154 3154 3155 3156 3157 3157 3158 3159 3159 3160 3161 3161 3162 3163 3163 3164 3165 3165 3166 3167 3168 3169 3169 3170 3171 3172 3173 3173 3174 3175 3175 3176 3176 3177 3177 3177 3178 3178 3178
3124 3124 3124 3124 3124 3124 3124 3123 3123 3123 3123 3123 3123 3122 3122 3122 3122 3123 3123 3124 3125 3126 3126 3127 3128 3129 3128 3129 3131 3133 3133 3133 3134 3135 3135 3136 3138 3140 3141 3143 3145 3146 3148 3149 3151 3152 3153 3154 3155 3155 3156 3157 3158 3159 3159 3160 3161 3162 3162 3163 3164 3164 3165 3166 3166 3167 3168 3168 3169 3170 3171 3171 3172 3173 3174 3174 3175 3175 3175 3176 3176 3177 3177 3177 3177 3177
3123 3123 3123 3123 3123 3123 3123 3122 3122 3122 3122 3122 3122 3121 3120 3120 3120 3121 3122 3123 3124 3125 3125 3126 3127 3127 3126 3127 3130 3133 3134 3134 3134 3135 3136 3137 3138 3140 3142 3143 3145 3146 3148 3149 3151 3152 3153 3154 3155 3155 3156 3157 3158 3159 3160 3161 3161 3162 3163 3163 3164 3165 3166 3166 3167 3168 3168 3169 3170 3170 3171 3172 3172 3173 3173 3174 3174 3174 3175 3175 3175 3175 3176 3176 3175 3175
3122 3122 3122 3122 3122 3122 3121 3121 3121 3121 3121 3121 3120 3119 3118 3118 3118 3120 3121 3123 3124 3124 3124 3125 3126 3125 3125 3127 3129 3132 3134 3135 3135 3137 3138 3138 3140 3141 3143 3144 3146 3147 3148 3150 3151 3153 3154 3155 3156 3156 3157 3158 3158 3159 3160 3161 3162 3162 3163 3164 3164 3165 3166 3167 3167 3168 3168 3169 3170 3170 3170 3171 3171 3172 3172 3173 3173 3174 3174 3174 3174 3174 3174 3174 3174 3174